#timestamp,LO_Frequency,Hit,StdDev 
1644159615.6,286046996.2,N
1644159635.4,286046999.1,N
1644159655.2,286046998.7,N
1644159675.1,286046998.5,N
1644159676.0,286046998.5,N
1644159695.8,286046997.1,N
1644159715.7,286046997.6,N
1644159735.5,286046996.9,N
1644159755.3,286046997.4,N
1644159775.2,286046997.9,N
1644159795.9,286046995.6,N
1644159815.7,286046994.7,N
1644159835.6,286046996.4,N
1644159855.4,286046997.5,N
1644159875.3,286046998.4,N
1644159895.1,286047001.1,N
1644159896.0,286047001.1,N
1644159915.8,286046998.8,N
1644159935.7,286046999.5,N
1644159955.5,286046997.1,N
1644159975.3,286046999.3,N
1644159995.2,286047000.4,N
1644160015.0,286047000.2,N
1644160015.9,286047000.2,N
1644160035.8,286047002.4,N
1644160055.6,286047001.9,N
1644160075.4,286047001.1,N
1644160095.3,286046998.9,N
1644160115.1,286046999.0,N
1644160135.8,286046999.3,N
1644160155.7,286046998.9,N
1644160175.5,286046996.8,N
1644160195.4,286046997.2,N
1644160215.2,286046993.4,Y
1644160235.0,286046997.4,P
1644160235.9,286046997.4,P
1644160255.8,286046997.2,P
1644160275.6,286046998.7,N
1644160295.5,286046998.4,N
1644160315.3,286046998.6,N
1644160335.1,286047001.0,N
1644160355.9,286046996.9,N
1644160375.7,286046997.1,N
1644160395.5,286046999.5,N
1644160415.4,286046997.8,N
1644160435.2,286046997.5,N
1644160455.0,286046997.6,N
1644160456.0,286046997.6,N
1644160475.8,286046995.4,Y
1644160495.6,286046998.6,P
1644160515.5,286047000.1,N
1644160535.3,286047002.3,N
1644160555.1,286047004.2,N
1644160575.9,286047002.2,N
1644160595.7,286047001.8,N
1644160615.3,286047001.6,N
1644160635.1,286047002.4,N
1644160655.9,286047001.0,N
1644160675.7,286046999.3,N
1644160695.6,286047002.6,N
1644160715.4,286047004.3,N
1644160735.2,286047003.2,N
1644160755.1,286047005.0,N
1644160756.0,286047005.0,N
1644160775.8,286047005.4,N
1644160795.7,286047003.1,N
1644160815.5,286047005.5,N
1644160835.3,286047005.8,N
1644160855.2,286047003.4,N
1644160875.9,286047001.3,N
1644160895.7,286047001.3,N
1644160915.6,286047005.4,N
1644160935.4,286047004.1,N
1644160955.2,286047004.2,N
1644160975.1,286047001.7,N
1644160976.0,286047001.7,N
1644160995.8,286047000.8,N
1644161015.7,286047001.0,N
1644161035.5,286047003.2,N
1644161055.3,286047003.8,N
1644161075.2,286047004.3,N
1644161095.0,286047002.2,N
1644161095.9,286047002.2,N
1644161115.8,286047001.9,N
1644161135.6,286047002.5,N
1644161155.4,286046999.9,N
1644161175.3,286047000.1,N
1644161195.1,286047002.1,N
1644161215.8,286047001.4,N
1644161235.7,286047003.4,N
1644161255.5,286047002.6,N
1644161275.4,286047000.8,N
1644161295.2,286046998.7,N
1644161315.0,286046996.7,N
1644161315.9,286046996.7,N
1644161335.8,286047001.2,N
1644161355.6,286047001.2,N
1644161375.4,286047000.3,N
1644161395.3,286046999.6,N
1644161415.1,286046997.1,N
1644161435.9,286047001.1,N
1644161455.7,286046999.7,N
1644161475.5,286047002.5,N
1644161495.4,286047002.2,N
1644161515.2,286047001.8,N
1644161535.0,286047002.1,N
1644161536.0,286047002.1,N
1644161555.8,286047002.4,N
1644161575.6,286047002.3,N
1644161595.5,286047006.2,Y
1644161615.3,286047003.7,P
1644161635.1,286047001.9,N
1644161655.9,286047002.4,N
1644161675.7,286047000.0,N
1644161695.6,286046999.2,N
1644161715.4,286047000.0,N
1644161735.2,286046998.2,N
1644161755.1,286046999.7,N
1644161756.0,286046999.7,N
1644161775.8,286046999.9,N
1644161795.6,286047000.1,N
1644161815.5,286047000.1,N
1644161835.3,286047002.5,N
1644161855.2,286047002.1,N
1644161875.9,286047002.8,N
1644161895.7,286047000.6,N
1644161915.6,286046996.8,N
1644161935.4,286047000.7,N
1644161955.2,286047000.3,N
1644161975.1,286047000.7,N
1644161976.0,286047000.7,N
1644161995.8,286046998.2,N
1644162015.7,286047001.2,N
1644162035.5,286046998.2,N
1644162055.3,286046999.6,N
1644162075.2,286046998.9,N
1644162095.0,286046999.9,N
1644162095.9,286046999.9,N
1644162115.7,286047002.4,N
1644162135.6,286047000.1,N
1644162155.4,286047001.0,N
1644162175.3,286047000.3,N
1644162195.1,286046998.6,N
1644162196.0,286046998.6,N
1644162215.8,286046998.9,N
1644162235.7,286046997.6,N
1644162255.5,286046996.5,N
1644162275.3,286046999.7,N
1644162295.2,286047001.0,N
1644162315.0,286047002.6,N
1644162315.9,286047002.6,N
1644162335.8,286046999.8,N
1644162355.6,286046999.0,N
1644162375.4,286047000.4,N
1644162395.3,286047002.8,N
1644162415.1,286047002.8,N
1644162435.9,286047002.0,N
1644162455.7,286046999.7,N
1644162475.5,286046998.5,N
1644162495.4,286046998.6,N
1644162515.2,286046997.5,N
1644162535.0,286046997.5,N
1644162535.9,286046997.5,N
1644162555.8,286046997.9,N
1644162575.6,286046997.7,N
1644162595.5,286046999.0,N
1644162615.3,286047001.2,N
1644162635.1,286046997.6,N
1644162655.9,286046997.3,N
1644162675.7,286046995.7,N
1644162695.5,286046994.0,Y
1644162715.4,286046999.4,P
1644162735.2,286047002.7,P
1644162755.1,286046999.7,N
1644162756.0,286046999.7,N
1644162775.8,286047000.0,N
1644162795.6,286047001.2,N
1644162815.5,286046996.5,Y
1644162835.3,286046999.6,P
1644162855.1,286046998.7,P
1644162875.9,286046999.4,N
1644162895.7,286046999.5,N
1644162915.6,286046993.3,Y
1644162935.4,286046996.8,P
1644162955.2,286046999.1,N
1644162975.1,286046998.9,N
1644162976.0,286046998.9,N
1644162995.8,286046998.8,N
1644163015.7,286047000.6,N
1644163035.5,286047001.9,N
1644163055.3,286047002.1,N
1644163075.2,286047002.8,N
1644163095.9,286047002.5,N
1644163115.7,286046999.8,N
1644163135.6,286047000.6,N
1644163155.4,286047002.8,N
1644163175.3,286047002.6,N
1644163195.1,286047001.9,N
1644163196.0,286047001.9,N
